[[{"header":{"parameterUnit":"m.s-1","parameterCategory":1,"la1":30.2991,"la2":30.254,"lo1":-89.0895,"lo2":-89.0444,"dy":0.0017,"dx":0.0017,"nx":28,"ny":28,"refTime":"2025-07-25T21:00:00:Z","depth":0,"parameterNumber":2,"parameterNumberName":"U-component_of_WINDS"},"data":[0,0,0,0,0,0,0,0,0,0,0,0,0,0,0,0,0,0,0,0,0,0,0,0,0,0,0,0,0,0,0,0,0,0,0,0,0,0,0,0,0,0,0,0,0,0,0,0,0,0,0,0,0,0,0,0,0,0,-0.558,-0.5579,0,-0.5565,-0.5565,-0.5565,-0.5553,-0.5553,-0.5553,-0.5553,-0.5538,-0.5538,-0.5537,0,0,0,0,0,0,0,0,0,0,0,0,0,-0.5597,-0.5597,-0.558,-0.5579,-0.5579,-0.5565,-0.5565,-0.5565,-0.5553,-0.5553,-0.5553,-0.5553,-0.5538,-0.5538,-0.5537,0,0,0,0,0,0,0,0,0,0,0,0,0,-0.5587,-0.5597,-0.558,-0.5572,-0.5571,-0.5565,-0.5565,-0.5565,-0.5553,-0.5553,-0.5553,-0.5553,-0.5538,-0.5538,-0.5537,-0.5538,0,0,-0.5536,-0.5536,0,0,0,0,0,0,0,0,-0.5588,-0.5586,-0.5573,-0.5572,-0.5571,-0.5561,-0.5566,-0.5556,-0.5553,-0.556,-0.5553,-0.5553,-0.5546,-0.5545,-0.5542,-0.5538,-0.5537,-0.5536,-0.5536,-0.5536,-0.5535,0,0,0,0,0,0,0,-0.5588,-0.5587,-0.5574,-0.5573,-0.5572,-0.5569,-0.5568,-0.5564,-0.5554,-0.5559,-0.5559,-0.5557,-0.5545,-0.5543,-0.5542,-0.5537,-0.5536,-0.5536,-0.5535,-0.5535,-0.5534,-0.5534,0,0,0,0,0,0,-0.559,-0.5588,-0.5574,-0.5574,-0.5579,-0.5569,-0.5567,-0.5564,-0.5554,-0.5552,-0.5557,-0.5557,-0.5544,-0.5542,-0.5541,-0.5543,-0.5536,-0.5535,-0.5535,-0.5533,-0.5534,-0.5534,0,0,0,0,0,0,-0.5591,-0.5589,-0.5575,-0.558,-0.5578,-0.5569,-0.5566,-0.5564,-0.5562,-0.5552,-0.5551,-0.5557,-0.5543,-0.5542,-0.554,-0.5542,-0.5535,-0.5535,-0.5533,-0.5534,-0.5534,-0.5545,0,0,0,0,0,0,-0.5591,-0.5589,-0.5589,-0.558,-0.5578,-0.5573,-0.5566,-0.5564,-0.5561,-0.556,-0.5551,-0.555,-0.5543,-0.554,-0.5539,-0.5541,-0.5534,-0.5533,-0.5533,-0.5534,-0.5544,-0.5545,-0.5546,0,0,0,0,0,-0.5592,-0.5593,-0.5589,-0.5588,-0.5578,-0.5573,-0.5572,-0.5565,-0.5561,-0.5562,-0.5556,-0.555,-0.5542,-0.554,-0.5539,-0.5541,-0.5533,-0.5533,-0.5534,-0.5543,-0.5545,-0.5546,0,0,0,0,0,0,-0.5601,-0.5591,-0.5588,-0.5585,-0.558,-0.5571,-0.5571,-0.5566,-0.5562,-0.5561,-0.5552,-0.555,-0.5549,-0.5545,-0.5543,-0.5542,-0.5537,-0.5537,-0.5545,-0.5546,-0.5547,-0.5548,-0.5534,0,0,0,0,0,-0.5603,-0.56,-0.5592,-0.5591,-0.5588,-0.558,-0.5578,-0.5573,-0.5567,-0.5565,-0.5559,-0.5554,-0.555,-0.5548,-0.5544,-0.5544,-0.5542,-0.5544,-0.5546,-0.5547,-0.5547,-0.5547,-0.5549,-0.5536,-0.5536,-0.5536,0,0,-0.5607,-0.5601,-0.56,-0.5592,-0.5588,-0.5585,-0.5578,-0.5576,-0.5574,-0.5565,-0.5562,-0.5558,-0.5551,-0.555,-0.5549,-0.5547,-0.555,-0.5547,-0.5548,-0.5548,-0.5548,-0.5549,-0.555,-0.5536,-0.5536,-0.5536,0,0,-0.5612,-0.5608,-0.5607,-0.5603,-0.5596,-0.5591,-0.5591,-0.5583,-0.558,-0.5578,-0.5571,-0.5569,-0.5563,-0.5559,-0.5556,-0.5562,-0.5557,-0.5561,-0.5567,-0.5568,-0.5569,-0.557,-0.5572,-0.5573,-0.5561,-0.5561,-0.5561,0,-0.5618,-0.5614,-0.5607,-0.5605,-0.5602,-0.5594,-0.5594,-0.559,-0.5583,-0.5581,-0.5578,-0.5572,-0.5567,-0.5565,-0.5567,-0.5565,-0.5565,-0.5562,-0.5569,-0.557,-0.5571,-0.5573,-0.5574,-0.5562,-0.5562,-0.5562,-0.5562,0,-0.5621,-0.5618,-0.5618,-0.5612,-0.5609,-0.5608,-0.5601,-0.56,-0.5596,-0.5591,-0.5589,-0.5584,-0.5579,-0.5578,-0.5574,-0.5576,-0.5575,-0.5571,-0.5565,-0.5573,-0.5575,-0.5576,-0.5563,-0.5563,-0.5562,-0.5562,0,0,-0.563,-0.5622,-0.5622,-0.5619,-0.5613,-0.5611,-0.561,-0.5606,-0.5605,-0.56,-0.5599,-0.5595,-0.5592,-0.5589,-0.5584,-0.5585,-0.5591,-0.558,-0.558,-0.5583,-0.5594,-0.5597,-0.5599,-0.5588,-0.5588,-0.5588,-0.5595,0,-0.5635,-0.5632,-0.5627,-0.5626,-0.5624,-0.5618,-0.5617,-0.5613,-0.5609,-0.5607,-0.5603,-0.5601,-0.5596,-0.5594,-0.5595,-0.559,-0.5593,-0.5589,-0.5587,-0.5587,-0.5589,-0.56,-0.5603,-0.5609,-0.5596,-0.5596,-0.5596,0,-0.5639,-0.5636,-0.5635,-0.563,-0.5629,-0.5628,-0.5625,-0.5623,-0.5619,-0.5616,-0.5614,-0.5609,-0.5608,-0.5604,-0.5603,-0.5601,-0.56,-0.5598,-0.5598,-0.5597,-0.5592,-0.5599,-0.5611,-0.5612,-0.5597,-0.5597,-0.5597,0,-0.5647,-0.5642,-0.5642,-0.564,-0.5634,-0.5633,-0.5631,-0.5627,-0.5625,-0.5622,-0.5621,-0.5618,-0.5617,-0.5615,-0.561,-0.5607,-0.561,-0.5604,-0.5608,-0.5608,-0.5608,-0.5608,-0.562,-0.5608,-0.5608,-0.5608,-0.5608,0,-0.5652,-0.5652,-0.5645,-0.5645,-0.5645,-0.5639,-0.564,-0.5636,-0.5633,-0.5632,-0.5627,-0.5626,-0.5619,-0.5618,-0.5614,-0.5615,-0.5614,-0.5612,-0.5611,-0.5612,-0.5613,-0.5611,-0.561,-0.5608,-0.5608,-0.5608,-0.5608,0,-0.566,-0.5655,-0.5654,-0.5649,-0.5648,-0.5648,-0.5644,-0.5644,-0.564,-0.5639,-0.5639,-0.5633,-0.5632,-0.5627,-0.5624,-0.5621,-0.5623,-0.5621,-0.5624,-0.5624,-0.5627,-0.5627,-0.5639,-0.564,-0.5627,-0.5627,-0.5627,0,-0.5663,-0.5663,-0.5659,-0.5658,-0.5656,-0.5655,-0.5653,-0.5648,-0.5647,-0.5644,-0.5644,-0.5642,-0.564,-0.5639,-0.5634,-0.5633,-0.563,-0.5635,-0.563,-0.5632,-0.5631,-0.5631,-0.5631,-0.5635,-0.5636,-0.5636,-0.5636,0,-0.567,-0.5669,-0.5667,-0.5665,-0.5664,-0.5662,-0.566,-0.5659,-0.5654,-0.5653,-0.5652,-0.5651,-0.5649,-0.5647,-0.5645,-0.5643,-0.5639,-0.5638,-0.5638,-0.564,-0.5642,-0.5641,-0.5627,-0.5637,-0.5637,-0.5637,-0.5637,-0.5637,-0.5676,-0.5676,-0.5673,-0.5672,-0.567,-0.5669,-0.5669,-0.5666,-0.5665,-0.5663,-0.566,-0.5659,-0.5657,-0.5653,-0.5652,-0.5651,-0.5649,-0.565,-0.565,-0.565,-0.5651,-0.5642,-0.5651,-0.5651,-0.5651,-0.5651,-0.5651,0,-0.5683,-0.5681,-0.568,-0.5678,-0.5677,-0.5674,-0.5672,-0.5672,-0.5671,-0.5669,-0.5668,-0.5668,-0.5667,-0.5663,-0.5662,-0.5663,-0.5661,-0.5662,-0.5662,-0.5662,-0.5653,-0.5653,-0.5664,-0.5664,-0.5664,-0.5664,-0.5664,-0.5664,-0.5686,-0.5687,-0.5685,-0.5685,-0.5683,-0.5683,-0.5682,-0.5681,-0.5679,-0.5679,-0.5678,-0.5676,-0.5674,-0.5673,-0.5672,-0.5671,-0.5671,-0.5673,-0.5672,-0.5664,-0.5662,-0.5661,-0.5661,-0.5673,-0.5673,-0.5681,-0.5681,-0.5681]},{"header":{"parameterUnit":"m.s-1","parameterCategory":1,"la1":30.2991,"la2":30.254,"lo1":-89.0895,"lo2":-89.0444,"dy":0.0017,"dx":0.0017,"nx":28,"ny":28,"refTime":"2025-07-25T21:00:00:Z","depth":0,"parameterNumber":3,"parameterNumberName":"V-component_of_WINDS"},"data":[0,0,0,0,0,0,0,0,0,0,0,0,0,0,0,0,0,0,0,0,0,0,0,0,0,0,0,0,0,0,0,0,0,0,0,0,0,0,0,0,0,0,0,0,0,0,0,0,0,0,0,0,0,0,0,0,0,0,1.3597,1.3597,0,1.3541,1.354,1.3539,1.3513,1.3513,1.3513,1.3513,1.3452,1.3451,1.3449,0,0,0,0,0,0,0,0,0,0,0,0,0,1.3681,1.3679,1.3597,1.3597,1.3596,1.3541,1.354,1.3539,1.3513,1.3513,1.3513,1.3513,1.3453,1.3451,1.3449,0,0,0,0,0,0,0,0,0,0,0,0,0,1.3636,1.3679,1.3598,1.3576,1.3574,1.3541,1.354,1.3539,1.3513,1.3513,1.3513,1.3513,1.3454,1.3451,1.3449,1.3433,0,0,1.3441,1.344,0,0,0,0,0,0,0,0,1.3639,1.3633,1.358,1.3577,1.3575,1.3534,1.3547,1.3503,1.3513,1.3536,1.3513,1.3513,1.3479,1.3475,1.3464,1.343,1.3427,1.3441,1.344,1.3439,1.3438,0,0,0,0,0,0,0,1.3642,1.3635,1.3575,1.3579,1.3576,1.3569,1.3562,1.3539,1.3508,1.3534,1.3532,1.3525,1.3478,1.3466,1.3462,1.3426,1.3441,1.3439,1.3437,1.3437,1.3376,1.3376,0,0,0,0,0,0,1.3649,1.3638,1.3577,1.3573,1.3608,1.3567,1.356,1.3547,1.3508,1.3502,1.3525,1.3524,1.3471,1.3465,1.346,1.3439,1.3439,1.3436,1.3435,1.3376,1.3376,1.3376,0,0,0,0,0,0,1.3651,1.3643,1.3579,1.3605,1.3596,1.3566,1.3551,1.3546,1.3534,1.3502,1.3496,1.3519,1.347,1.3464,1.344,1.3436,1.3435,1.3433,1.3377,1.3376,1.3376,1.3396,0,0,0,0,0,0,1.3653,1.3644,1.3638,1.3605,1.3595,1.356,1.3551,1.3545,1.353,1.3528,1.3495,1.3489,1.347,1.3444,1.3437,1.3433,1.3431,1.3377,1.3377,1.3376,1.3395,1.3396,1.3397,0,0,0,0,0,1.3656,1.3645,1.3638,1.3631,1.3587,1.356,1.3554,1.3533,1.353,1.3523,1.3503,1.349,1.3438,1.3442,1.3434,1.3429,1.3377,1.3377,1.3376,1.3395,1.3396,1.3397,0,0,0,0,0,0,1.3678,1.3641,1.3632,1.3611,1.3589,1.3556,1.3547,1.3535,1.3513,1.3512,1.3486,1.3478,1.3457,1.3441,1.3445,1.3411,1.3406,1.3404,1.3423,1.3424,1.3425,1.3429,1.3429,0,0,0,0,0,1.368,1.3662,1.3631,1.3615,1.3604,1.3578,1.3565,1.3551,1.3527,1.3517,1.3495,1.3471,1.345,1.3436,1.3414,1.3393,1.3385,1.3386,1.3387,1.3388,1.3386,1.3374,1.3374,1.3375,1.3375,1.3375,0,0,1.3685,1.3662,1.3652,1.3618,1.36,1.3581,1.357,1.355,1.3536,1.3514,1.349,1.3473,1.3445,1.3423,1.3412,1.3409,1.3384,1.3387,1.3388,1.3386,1.3374,1.3373,1.3373,1.3375,1.3375,1.3375,0,0,1.3683,1.3665,1.365,1.3632,1.3604,1.3586,1.3583,1.3552,1.354,1.3516,1.3499,1.3481,1.3444,1.3425,1.3411,1.3403,1.3391,1.3397,1.3401,1.339,1.339,1.3389,1.3387,1.3386,1.3396,1.3396,1.3396,0,1.3692,1.3664,1.3643,1.3625,1.361,1.359,1.3574,1.3558,1.3524,1.3514,1.3511,1.3465,1.3445,1.3418,1.3416,1.3405,1.34,1.34,1.3392,1.3391,1.3391,1.3388,1.3387,1.3397,1.3397,1.3397,1.3397,0,1.3676,1.3657,1.3648,1.3617,1.3602,1.3585,1.356,1.3547,1.3535,1.3517,1.3493,1.3469,1.3442,1.3434,1.3421,1.3405,1.3404,1.3397,1.3391,1.3392,1.3388,1.3387,1.3398,1.3398,1.3398,1.3397,0,0,1.3686,1.3645,1.3642,1.3627,1.3596,1.358,1.3563,1.3537,1.3526,1.3504,1.3488,1.3458,1.3451,1.3435,1.3419,1.3409,1.3405,1.3403,1.3402,1.3404,1.3386,1.3391,1.339,1.3397,1.3396,1.3396,1.3388,0,1.368,1.3648,1.3629,1.3604,1.3586,1.3567,1.3552,1.353,1.3514,1.3496,1.3477,1.3456,1.3449,1.3439,1.3428,1.3408,1.3401,1.3408,1.3381,1.338,1.3388,1.3389,1.3394,1.3388,1.3387,1.3386,1.3386,0,1.3669,1.3648,1.3622,1.3593,1.3585,1.3571,1.3546,1.3529,1.3505,1.3494,1.3476,1.3461,1.3441,1.3437,1.3409,1.3415,1.3403,1.3391,1.339,1.3386,1.3383,1.3384,1.3385,1.3384,1.3384,1.3384,1.3384,0,1.3678,1.3644,1.3624,1.3612,1.3578,1.3569,1.3554,1.353,1.3516,1.3494,1.3485,1.3461,1.3448,1.3429,1.3408,1.3407,1.3382,1.3376,1.3371,1.3372,1.3366,1.3367,1.3365,1.3359,1.3359,1.3359,1.3359,0,1.3673,1.3658,1.3628,1.3615,1.3598,1.3576,1.3558,1.3542,1.3521,1.3504,1.3487,1.3472,1.3445,1.3426,1.3409,1.3389,1.3383,1.3373,1.3368,1.3374,1.3375,1.3365,1.3365,1.3359,1.3359,1.3359,1.3359,0,1.3681,1.366,1.3637,1.3607,1.3599,1.3587,1.3561,1.3548,1.3531,1.3511,1.3505,1.3478,1.3455,1.3432,1.3402,1.339,1.337,1.3364,1.3378,1.3376,1.3372,1.3372,1.3363,1.336,1.3357,1.3357,1.3357,0,1.3679,1.3667,1.3636,1.3624,1.361,1.3591,1.3577,1.3555,1.3541,1.3513,1.3503,1.348,1.3459,1.3424,1.3401,1.3378,1.3371,1.337,1.3367,1.3374,1.3371,1.3372,1.337,1.337,1.337,1.337,1.3371,0,1.3678,1.3668,1.3649,1.3626,1.361,1.3591,1.3571,1.3563,1.3537,1.3522,1.3499,1.3484,1.3453,1.3429,1.3403,1.3387,1.3374,1.3372,1.3369,1.3374,1.3383,1.3378,1.338,1.3372,1.3372,1.3371,1.3371,1.3371,1.368,1.3668,1.3645,1.3624,1.3607,1.3589,1.3576,1.3558,1.3539,1.3512,1.35,1.3478,1.3454,1.3417,1.3402,1.3383,1.338,1.3376,1.3375,1.3374,1.3376,1.3387,1.3378,1.3378,1.3378,1.3378,1.3378,0,1.3677,1.3662,1.3643,1.3616,1.36,1.3591,1.3568,1.3555,1.3535,1.3515,1.3496,1.3469,1.3447,1.3423,1.3399,1.3388,1.3382,1.3383,1.3383,1.3379,1.338,1.3385,1.3388,1.3388,1.3388,1.3388,1.3388,1.3388,1.3674,1.3654,1.3642,1.3614,1.3598,1.3576,1.3564,1.3547,1.353,1.3502,1.3484,1.3469,1.3446,1.3421,1.34,1.3393,1.3385,1.3387,1.3379,1.338,1.3379,1.3379,1.3383,1.3386,1.3386,1.3379,1.3379,1.3379]}]]